Time,TemperatureF,DewpointF,PressureIn,WindDirection,WindDirectionDegrees,WindSpeedMPH,WindSpeedGustMPH,Humidity,HourlyPrecipIn,Conditions,Clouds,dailyrainin,SoftwareType,DateUTC
2013-01-09 00:00:00,40.3,32.3,30.02,SSW,205,12.0,12.0,73,0.00,,,0.00,Wunderground v.1.15,2013-01-09 06:00:00,
2013-01-09 00:04:00,40.4,32.4,30.02,SW,224,11.0,12.0,73,0.00,,,0.00,Wunderground v.1.15,2013-01-09 06:04:00,
2013-01-09 00:06:00,40.4,32.4,30.02,SSW,208,11.0,14.0,73,0.00,,,0.00,Wunderground v.1.15,2013-01-09 06:06:00,
2013-01-09 00:08:00,40.4,32.4,30.02,SSW,195,11.0,14.0,73,0.00,,,0.00,Wunderground v.1.15,2013-01-09 06:08:00,
2013-01-09 00:12:00,40.4,32.4,30.02,SW,236,12.0,15.0,73,0.00,,,0.00,Wunderground v.1.15,2013-01-09 06:12:00,
2013-01-09 00:14:00,40.2,32.6,30.02,WSW,243,12.0,15.0,74,0.00,,,0.00,Wunderground v.1.15,2013-01-09 06:14:00,
2013-01-09 00:16:00,40.2,32.6,30.02,WSW,246,12.0,15.0,74,0.00,,,0.00,Wunderground v.1.15,2013-01-09 06:16:00,
2013-01-09 00:20:00,39.9,32.3,30.03,SW,226,13.0,15.0,74,0.00,,,0.00,Wunderground v.1.15,2013-01-09 06:20:00,
2013-01-09 00:26:00,39.4,32.5,30.03,SW,227,12.0,15.0,76,0.00,,,0.00,Wunderground v.1.15,2013-01-09 06:26:00,
2013-01-09 00:28:00,39.3,32.4,30.03,SW,235,12.0,15.0,76,0.00,,,0.00,Wunderground v.1.15,2013-01-09 06:28:00,
2013-01-09 00:30:00,39.3,32.4,30.03,SW,224,13.0,13.0,76,0.00,,,0.00,Wunderground v.1.15,2013-01-09 06:30:00,
2013-01-09 00:34:00,39.1,32.2,30.03,SW,215,13.0,13.0,76,0.00,,,0.00,Wunderground v.1.15,2013-01-09 06:34:00,
2013-01-09 00:36:00,39.0,32.4,30.03,SW,225,13.0,13.0,77,0.00,,,0.00,Wunderground v.1.15,2013-01-09 06:36:00,
2013-01-09 00:38:00,38.9,32.3,30.03,SSW,213,12.0,13.0,77,0.00,,,0.00,Wunderground v.1.15,2013-01-09 06:38:00,
2013-01-09 00:42:00,38.9,32.3,30.03,SW,214,12.0,12.0,77,0.00,,,0.00,Wunderground v.1.15,2013-01-09 06:42:00,
2013-01-09 00:44:00,38.9,32.3,30.03,SSW,210,12.0,12.0,77,0.00,,,0.00,Wunderground v.1.15,2013-01-09 06:44:00,
2013-01-09 00:46:00,38.9,32.3,30.03,SSW,210,12.0,12.0,77,0.00,,,0.00,Wunderground v.1.15,2013-01-09 06:46:00,
2013-01-09 00:48:00,38.8,32.2,30.03,West,273,12.0,12.0,77,0.00,,,0.00,Wunderground v.1.15,2013-01-09 06:48:00,
2013-01-09 00:50:00,38.7,32.1,30.03,WSW,255,11.0,11.0,77,0.00,,,0.00,Wunderground v.1.15,2013-01-09 06:50:00,
2013-01-09 00:52:00,38.7,32.1,30.04,SW,224,11.0,11.0,77,0.00,,,0.00,Wunderground v.1.15,2013-01-09 06:52:00,
2013-01-09 00:56:00,38.7,32.4,30.04,SW,236,9.0,11.0,78,0.00,,,0.00,Wunderground v.1.15,2013-01-09 06:56:00,
2013-01-09 00:58:00,38.7,32.4,30.04,WSW,239,8.0,11.0,78,0.00,,,0.00,Wunderground v.1.15,2013-01-09 06:58:00,
2013-01-09 01:00:00,38.7,32.4,30.04,SSW,193,8.0,10.0,78,0.00,,,0.00,Wunderground v.1.15,2013-01-09 07:00:00,
2013-01-09 01:04:00,38.8,32.5,30.04,SW,215,9.0,10.0,78,0.00,,,0.00,Wunderground v.1.15,2013-01-09 07:04:00,
2013-01-09 01:06:00,38.8,32.5,30.04,WSW,240,9.0,15.0,78,0.00,,,0.00,Wunderground v.1.15,2013-01-09 07:06:00,
2013-01-09 01:08:00,38.8,32.5,30.04,WSW,240,10.0,15.0,78,0.00,,,0.00,Wunderground v.1.15,2013-01-09 07:08:00,
2013-01-09 01:12:00,38.8,32.5,30.05,WSW,250,10.0,13.0,78,0.00,,,0.00,Wunderground v.1.15,2013-01-09 07:12:00,
2013-01-09 01:14:00,38.8,32.5,30.05,WSW,243,10.0,13.0,78,0.00,,,0.00,Wunderground v.1.15,2013-01-09 07:14:00,
2013-01-09 01:18:00,38.7,32.7,30.05,West,260,10.0,13.0,79,0.00,,,0.00,Wunderground v.1.15,2013-01-09 07:18:00,
2013-01-09 01:20:00,38.7,32.7,30.05,SW,235,9.0,9.0,79,0.00,,,0.00,Wunderground v.1.15,2013-01-09 07:20:00,
2013-01-09 01:26:00,38.5,32.6,30.06,SW,217,9.0,11.0,79,0.00,,,0.00,Wunderground v.1.15,2013-01-09 07:26:00,
2013-01-09 01:28:00,38.4,32.5,30.06,WSW,238,8.0,11.0,79,0.00,,,0.00,Wunderground v.1.15,2013-01-09 07:28:00,
2013-01-09 01:34:00,38.3,32.7,30.06,SSW,193,7.0,8.0,80,0.00,,,0.00,Wunderground v.1.15,2013-01-09 07:34:00,
2013-01-09 01:36:00,38.3,32.7,30.06,SW,226,7.0,8.0,80,0.00,,,0.00,Wunderground v.1.15,2013-01-09 07:36:00,
2013-01-09 01:38:00,38.3,33.0,30.06,SW,220,7.0,8.0,81,0.00,,,0.00,Wunderground v.1.15,2013-01-09 07:38:00,
2013-01-09 01:40:00,38.3,33.0,30.06,SSW,201,8.0,11.0,81,0.00,,,0.00,Wunderground v.1.15,2013-01-09 07:40:00,
2013-01-09 01:42:00,38.4,33.1,30.06,SW,214,8.0,11.0,81,0.00,,,0.00,Wunderground v.1.15,2013-01-09 07:42:00,
2013-01-09 01:48:00,38.6,33.3,30.07,WSW,243,9.0,11.0,81,0.00,,,0.00,Wunderground v.1.15,2013-01-09 07:48:00,
2013-01-09 01:50:00,38.7,33.4,30.07,SW,214,9.0,11.0,81,0.00,,,0.00,Wunderground v.1.15,2013-01-09 07:50:00,
2013-01-09 01:54:00,38.7,33.4,30.07,West,271,10.0,11.0,81,0.00,,,0.00,Wunderground v.1.15,2013-01-09 07:54:00,
2013-01-09 01:58:00,38.7,33.4,30.07,WSW,249,9.0,11.0,81,0.00,,,0.00,Wunderground v.1.15,2013-01-09 07:58:00,
2013-01-09 02:00:00,38.7,33.4,30.07,SSE,165,9.0,9.0,81,0.00,,,0.00,Wunderground v.1.15,2013-01-09 08:00:00,
2013-01-09 02:02:00,38.8,33.5,30.07,WSW,255,9.0,9.0,81,0.00,,,0.00,Wunderground v.1.15,2013-01-09 08:02:00,
2013-01-09 02:08:00,38.8,33.5,30.08,SSW,201,10.0,10.0,81,0.00,,,0.00,Wunderground v.1.15,2013-01-09 08:08:00,
2013-01-09 02:10:00,38.7,33.4,30.08,SW,233,10.0,11.0,81,0.00,,,0.00,Wunderground v.1.15,2013-01-09 08:10:00,
2013-01-09 02:12:00,38.7,33.4,30.08,SSW,212,10.0,12.0,81,0.00,,,0.00,Wunderground v.1.15,2013-01-09 08:12:00,
2013-01-09 02:14:00,38.7,33.4,30.08,SSW,212,10.0,12.0,81,0.00,,,0.00,Wunderground v.1.15,2013-01-09 08:14:00,
2013-01-09 02:18:00,38.7,33.4,30.08,WSW,253,9.0,12.0,81,0.00,,,0.00,Wunderground v.1.15,2013-01-09 08:18:00,
2013-01-09 02:20:00,38.7,33.4,30.08,SSW,212,9.0,9.0,81,0.00,,,0.00,Wunderground v.1.15,2013-01-09 08:20:00,
2013-01-09 02:24:00,38.5,33.5,30.08,SW,226,9.0,11.0,82,0.00,,,0.00,Wunderground v.1.15,2013-01-09 08:24:00,
2013-01-09 02:26:00,38.4,33.4,30.08,SW,221,9.0,11.0,82,0.00,,,0.00,Wunderground v.1.15,2013-01-09 08:26:00,
2013-01-09 02:28:00,38.3,33.3,30.08,SW,217,9.0,11.0,82,0.00,,,0.00,Wunderground v.1.15,2013-01-09 08:28:00,
2013-01-09 02:32:00,38.0,33.0,30.08,SSW,211,9.0,9.0,82,0.00,,,0.00,Wunderground v.1.15,2013-01-09 08:32:00,
2013-01-09 02:36:00,37.8,33.1,30.08,West,269,8.0,9.0,83,0.00,,,0.00,Wunderground v.1.15,2013-01-09 08:36:00,
2013-01-09 02:38:00,37.6,32.9,30.08,West,264,8.0,9.0,83,0.00,,,0.00,Wunderground v.1.15,2013-01-09 08:38:00,
2013-01-09 02:42:00,37.3,32.9,30.09,SW,219,8.0,8.0,84,0.00,,,0.00,Wunderground v.1.15,2013-01-09 08:42:00,
2013-01-09 02:44:00,37.1,32.7,30.09,SW,217,8.0,8.0,84,0.00,,,0.00,Wunderground v.1.15,2013-01-09 08:44:00,
2013-01-09 02:48:00,36.8,32.4,30.09,SW,220,8.0,9.0,84,0.00,,,0.00,Wunderground v.1.15,2013-01-09 08:48:00,
2013-01-09 02:50:00,36.7,32.6,30.09,WSW,249,8.0,8.0,85,0.00,,,0.00,Wunderground v.1.15,2013-01-09 08:50:00,
2013-01-09 02:54:00,36.5,32.4,30.09,WSW,242,8.0,9.0,85,0.00,,,0.00,Wunderground v.1.15,2013-01-09 08:54:00,
2013-01-09 02:56:00,36.4,32.3,30.10,West,273,8.0,9.0,85,0.00,,,0.00,Wunderground v.1.15,2013-01-09 08:56:00,
2013-01-09 02:58:00,36.3,32.5,30.09,SSW,197,8.0,11.0,86,0.00,,,0.00,Wunderground v.1.15,2013-01-09 08:58:00,
2013-01-09 03:02:00,36.1,32.3,30.10,SSW,211,8.0,8.0,86,0.00,,,0.00,Wunderground v.1.15,2013-01-09 09:02:00,
2013-01-09 03:04:00,36.1,32.3,30.09,WSW,250,8.0,8.0,86,0.00,,,0.00,Wunderground v.1.15,2013-01-09 09:04:00,
2013-01-09 03:06:00,36.0,32.2,30.09,SW,233,8.0,13.0,86,0.00,,,0.00,Wunderground v.1.15,2013-01-09 09:06:00,
2013-01-09 03:08:00,35.9,32.1,30.10,SW,226,8.0,13.0,86,0.00,,,0.00,Wunderground v.1.15,2013-01-09 09:08:00,
2013-01-09 03:10:00,35.8,32.0,30.10,SW,236,8.0,9.0,86,0.00,,,0.00,Wunderground v.1.15,2013-01-09 09:10:00,
2013-01-09 03:12:00,35.7,32.2,30.10,West,270,8.0,9.0,87,0.00,,,0.00,Wunderground v.1.15,2013-01-09 09:12:00,
2013-01-09 03:16:00,35.5,32.0,30.10,WSW,242,7.0,9.0,87,0.00,,,0.00,Wunderground v.1.15,2013-01-09 09:16:00,
2013-01-09 03:18:00,35.4,31.9,30.10,SSW,192,7.0,9.0,87,0.00,,,0.00,Wunderground v.1.15,2013-01-09 09:18:00,
2013-01-09 03:22:00,35.5,32.3,30.10,SW,236,8.0,9.0,88,0.00,,,0.00,Wunderground v.1.15,2013-01-09 09:22:00,
2013-01-09 03:24:00,35.5,32.3,30.10,South,180,8.0,9.0,88,0.00,,,0.00,Wunderground v.1.15,2013-01-09 09:24:00,
2013-01-09 03:28:00,35.5,32.3,30.10,West,259,9.0,10.0,88,0.00,,,0.00,Wunderground v.1.15,2013-01-09 09:28:00,
2013-01-09 03:30:00,35.5,32.3,30.11,SW,236,9.0,11.0,88,0.00,,,0.00,Wunderground v.1.15,2013-01-09 09:30:00,
2013-01-09 03:32:00,35.5,32.3,30.11,SW,219,9.0,11.0,88,0.00,,,0.00,Wunderground v.1.15,2013-01-09 09:32:00,
2013-01-09 03:34:00,35.4,32.2,30.11,SW,217,9.0,11.0,88,0.00,,,0.00,Wunderground v.1.15,2013-01-09 09:34:00,
2013-01-09 03:40:00,35.2,32.0,30.11,SSW,201,9.0,9.0,88,0.00,,,0.00,Wunderground v.1.15,2013-01-09 09:40:00,
2013-01-09 03:42:00,35.1,31.9,30.11,WSW,239,9.0,10.0,88,0.00,,,0.00,Wunderground v.1.15,2013-01-09 09:42:00,
2013-01-09 03:44:00,35.1,31.9,30.11,SW,215,9.0,10.0,88,0.00,,,0.00,Wunderground v.1.15,2013-01-09 09:44:00,
2013-01-09 03:46:00,35.0,31.8,30.11,SW,219,9.0,10.0,88,0.00,,,0.00,Wunderground v.1.15,2013-01-09 09:46:00,
2013-01-09 03:50:00,35.0,32.1,30.11,SW,226,8.0,10.0,89,0.00,,,0.00,Wunderground v.1.15,2013-01-09 09:50:00,
2013-01-09 03:52:00,34.8,31.9,30.12,SW,220,8.0,10.0,89,0.00,,,0.00,Wunderground v.1.15,2013-01-09 09:52:00,
2013-01-09 03:56:00,34.7,31.8,30.12,WSW,243,8.0,10.0,89,0.00,,,0.00,Wunderground v.1.15,2013-01-09 09:56:00,
2013-01-09 03:58:00,34.6,31.7,30.12,SW,225,8.0,10.0,89,0.00,,,0.00,Wunderground v.1.15,2013-01-09 09:58:00,
2013-01-09 04:00:00,34.6,31.7,30.12,West,265,8.0,8.0,89,0.00,,,0.00,Wunderground v.1.15,2013-01-09 10:00:00,
2013-01-09 04:02:00,34.5,31.6,30.12,SW,217,8.0,8.0,89,0.00,,,0.00,Wunderground v.1.15,2013-01-09 10:02:00,
2013-01-09 04:04:00,34.5,31.6,30.12,WSW,252,8.0,8.0,89,0.00,,,0.00,Wunderground v.1.15,2013-01-09 10:04:00,
2013-01-09 04:06:00,34.4,31.5,30.12,SW,228,7.0,8.0,89,0.00,,,0.00,Wunderground v.1.15,2013-01-09 10:06:00,
2013-01-09 04:10:00,34.2,31.6,30.13,WNW,287,7.0,7.0,90,0.00,,,0.00,Wunderground v.1.15,2013-01-09 10:10:00,
2013-01-09 04:14:00,34.0,31.4,30.13,SW,236,7.0,7.0,90,0.00,,,0.00,Wunderground v.1.15,2013-01-09 10:14:00,
2013-01-09 04:16:00,34.0,31.4,30.13,West,262,7.0,7.0,90,0.00,,,0.00,Wunderground v.1.15,2013-01-09 10:16:00,
2013-01-09 04:18:00,33.9,31.3,30.13,WSW,253,7.0,7.0,90,0.00,,,0.00,Wunderground v.1.15,2013-01-09 10:18:00,
2013-01-09 04:24:00,33.9,31.3,30.13,WSW,239,7.0,8.0,90,0.00,,,0.00,Wunderground v.1.15,2013-01-09 10:24:00,
2013-01-09 04:28:00,33.8,31.5,30.13,SW,214,7.0,8.0,91,0.00,,,0.00,Wunderground v.1.15,2013-01-09 10:28:00,
2013-01-09 04:30:00,33.8,31.5,30.13,WSW,239,7.0,7.0,91,0.00,,,0.00,Wunderground v.1.15,2013-01-09 10:30:00,
2013-01-09 04:34:00,33.7,31.4,30.13,WSW,249,7.0,9.0,91,0.00,,,0.00,Wunderground v.1.15,2013-01-09 10:34:00,
2013-01-09 04:36:00,33.7,31.4,30.13,SW,233,7.0,9.0,91,0.00,,,0.00,Wunderground v.1.15,2013-01-09 10:36:00,
2013-01-09 04:40:00,33.8,31.5,30.13,WSW,253,7.0,8.0,91,0.00,,,0.00,Wunderground v.1.15,2013-01-09 10:40:00,
2013-01-09 04:42:00,33.7,31.4,30.13,West,269,7.0,8.0,91,0.00,,,0.00,Wunderground v.1.15,2013-01-09 10:42:00,
2013-01-09 04:46:00,33.5,31.2,30.14,WSW,240,6.0,8.0,91,0.00,,,0.00,Wunderground v.1.15,2013-01-09 10:46:00,
2013-01-09 04:52:00,33.3,31.0,30.14,WSW,250,6.0,11.0,91,0.00,,,0.00,Wunderground v.1.15,2013-01-09 10:52:00,
2013-01-09 04:54:00,33.2,30.9,30.14,WSW,249,6.0,11.0,91,0.00,,,0.00,Wunderground v.1.15,2013-01-09 10:54:00,
2013-01-09 05:00:00,33.2,31.1,30.15,West,266,7.0,8.0,92,0.00,,,0.00,Wunderground v.1.15,2013-01-09 11:00:00,
2013-01-09 05:02:00,33.3,31.2,30.15,West,273,7.0,8.0,92,0.00,,,0.00,Wunderground v.1.15,2013-01-09 11:02:00,
2013-01-09 05:04:00,33.3,31.2,30.15,WSW,249,7.0,8.0,92,0.00,,,0.00,Wunderground v.1.15,2013-01-09 11:04:00,
2013-01-09 05:06:00,33.3,31.2,30.15,WSW,240,7.0,8.0,92,0.00,,,0.00,Wunderground v.1.15,2013-01-09 11:06:00,
2013-01-09 05:12:00,33.3,31.2,30.15,West,264,7.0,7.0,92,0.00,,,0.00,Wunderground v.1.15,2013-01-09 11:12:00,
2013-01-09 05:18:00,33.2,31.1,30.16,West,273,7.0,9.0,92,0.00,,,0.00,Wunderground v.1.15,2013-01-09 11:18:00,
2013-01-09 05:20:00,33.2,31.1,30.16,WNW,285,6.0,7.0,92,0.00,,,0.00,Wunderground v.1.15,2013-01-09 11:20:00,
2013-01-09 05:26:00,33.2,31.1,30.16,West,259,6.0,8.0,92,0.00,,,0.00,Wunderground v.1.15,2013-01-09 11:26:00,
2013-01-09 05:30:00,33.1,31.0,30.17,West,278,6.0,6.0,92,0.00,,,0.00,Wunderground v.1.15,2013-01-09 11:30:00,
2013-01-09 05:34:00,33.1,31.0,30.17,West,259,5.0,7.0,92,0.00,,,0.00,Wunderground v.1.15,2013-01-09 11:34:00,
2013-01-09 05:38:00,32.9,30.8,30.18,NW,308,5.0,7.0,92,0.00,,,0.00,Wunderground v.1.15,2013-01-09 11:38:00,
2013-01-09 05:40:00,32.9,30.8,30.18,SW,217,5.0,5.0,92,0.00,,,0.00,Wunderground v.1.15,2013-01-09 11:40:00,
2013-01-09 05:42:00,32.8,30.7,30.18,SSW,210,5.0,7.0,92,0.00,,,0.00,Wunderground v.1.15,2013-01-09 11:42:00,
2013-01-09 05:44:00,32.9,30.8,30.18,SW,225,5.0,7.0,92,0.00,,,0.00,Wunderground v.1.15,2013-01-09 11:44:00,
2013-01-09 05:46:00,32.9,30.8,30.18,SW,228,6.0,7.0,92,0.00,,,0.00,Wunderground v.1.15,2013-01-09 11:46:00,
2013-01-09 05:48:00,32.9,30.8,30.18,WSW,257,6.0,7.0,92,0.00,,,0.00,Wunderground v.1.15,2013-01-09 11:48:00,
2013-01-09 05:54:00,32.8,30.7,30.18,WNW,290,5.0,7.0,92,0.00,,,0.00,Wunderground v.1.15,2013-01-09 11:54:00,
2013-01-09 05:56:00,32.7,30.6,30.19,West,274,5.0,7.0,92,0.00,,,0.00,Wunderground v.1.15,2013-01-09 11:56:00,
2013-01-09 06:00:00,32.5,30.4,30.19,West,280,5.0,5.0,92,0.00,,,0.00,Wunderground v.1.15,2013-01-09 12:00:00,
2013-01-09 06:02:00,32.5,30.4,30.19,WSW,257,5.0,7.0,92,0.00,,,0.00,Wunderground v.1.15,2013-01-09 12:02:00,
2013-01-09 06:06:00,32.4,30.3,30.19,WNW,287,5.0,7.0,92,0.00,,,0.00,Wunderground v.1.15,2013-01-09 12:06:00,
2013-01-09 06:08:00,32.4,30.3,30.19,WSW,253,5.0,7.0,92,0.00,,,0.00,Wunderground v.1.15,2013-01-09 12:08:00,
2013-01-09 06:10:00,32.3,30.2,30.19,NW,307,5.0,7.0,92,0.00,,,0.00,Wunderground v.1.15,2013-01-09 12:10:00,
2013-01-09 06:12:00,32.2,30.1,30.19,WSW,245,5.0,7.0,92,0.00,,,0.00,Wunderground v.1.15,2013-01-09 12:12:00,
2013-01-09 06:14:00,32.1,30.0,30.19,WSW,245,4.0,7.0,92,0.00,,,0.00,Wunderground v.1.15,2013-01-09 12:14:00,
2013-01-09 06:18:00,32.1,30.0,30.19,SW,235,4.0,7.0,92,0.00,,,0.00,Wunderground v.1.15,2013-01-09 12:18:00,
2013-01-09 06:20:00,32.1,30.0,30.19,SW,226,4.0,7.0,92,0.00,,,0.00,Wunderground v.1.15,2013-01-09 12:20:00,
2013-01-09 06:24:00,32.0,29.9,30.19,WSW,256,4.0,7.0,92,0.00,,,0.00,Wunderground v.1.15,2013-01-09 12:24:00,
2013-01-09 06:26:00,31.9,29.8,30.19,WSW,243,4.0,7.0,92,0.00,,,0.00,Wunderground v.1.15,2013-01-09 12:26:00,
2013-01-09 06:28:00,31.7,29.6,30.19,West,272,4.0,7.0,92,0.00,,,0.00,Wunderground v.1.15,2013-01-09 12:28:00,
2013-01-09 06:30:00,31.6,29.5,30.19,WSW,250,4.0,4.0,92,0.00,,,0.00,Wunderground v.1.15,2013-01-09 12:30:00,
2013-01-09 06:34:00,31.4,29.3,30.19,WSW,241,4.0,7.0,92,0.00,,,0.00,Wunderground v.1.15,2013-01-09 12:34:00,
2013-01-09 06:36:00,31.3,29.2,30.19,SW,218,4.0,7.0,92,0.00,,,0.00,Wunderground v.1.15,2013-01-09 12:36:00,
2013-01-09 06:38:00,31.1,29.0,30.20,WSW,238,4.0,7.0,92,0.00,,,0.00,Wunderground v.1.15,2013-01-09 12:38:00,
2013-01-09 06:40:00,30.9,28.9,30.20,WSW,247,4.0,4.0,92,0.00,,,0.00,Wunderground v.1.15,2013-01-09 12:40:00,
2013-01-09 06:44:00,30.7,28.9,30.20,WNW,283,4.0,7.0,93,0.00,,,0.00,Wunderground v.1.15,2013-01-09 12:44:00,
2013-01-09 06:46:00,30.6,28.8,30.21,WSW,239,4.0,7.0,93,0.00,,,0.00,Wunderground v.1.15,2013-01-09 12:46:00,
2013-01-09 06:48:00,30.4,28.6,30.21,SSW,205,4.0,7.0,93,0.00,,,0.00,Wunderground v.1.15,2013-01-09 12:48:00,
2013-01-09 06:50:00,30.4,28.6,30.21,SW,229,4.0,7.0,93,0.00,,,0.00,Wunderground v.1.15,2013-01-09 12:50:00,
2013-01-09 06:54:00,30.4,28.9,30.21,SSW,211,4.0,7.0,94,0.00,,,0.00,Wunderground v.1.15,2013-01-09 12:54:00,
2013-01-09 06:58:00,30.4,28.9,30.21,SW,224,4.0,7.0,94,0.00,,,0.00,Wunderground v.1.15,2013-01-09 12:58:00,
2013-01-09 07:00:00,30.4,28.9,30.21,WSW,246,5.0,5.0,94,0.00,,,0.00,Wunderground v.1.15,2013-01-09 13:00:00,
2013-01-09 07:02:00,30.4,28.9,30.22,SSW,212,4.0,7.0,94,0.00,,,0.00,Wunderground v.1.15,2013-01-09 13:02:00,
2013-01-09 07:06:00,30.3,28.8,30.22,SW,230,4.0,7.0,94,0.00,,,0.00,Wunderground v.1.15,2013-01-09 13:06:00,
2013-01-09 07:08:00,30.3,28.8,30.22,SW,226,4.0,7.0,94,0.00,,,0.00,Wunderground v.1.15,2013-01-09 13:08:00,
2013-01-09 07:12:00,30.3,28.8,30.22,SSW,205,5.0,7.0,94,0.00,,,0.00,Wunderground v.1.15,2013-01-09 13:12:00,
2013-01-09 07:16:00,30.3,28.8,30.22,SW,215,5.0,7.0,94,0.00,,,0.00,Wunderground v.1.15,2013-01-09 13:16:00,
2013-01-09 07:18:00,30.3,28.8,30.22,SW,222,5.0,7.0,94,0.00,,,0.00,Wunderground v.1.15,2013-01-09 13:18:00,
2013-01-09 07:20:00,30.4,28.9,30.22,SW,236,5.0,7.0,94,0.00,,,0.00,Wunderground v.1.15,2013-01-09 13:20:00,
2013-01-09 07:24:00,30.3,28.8,30.22,WSW,243,6.0,7.0,94,0.00,,,0.00,Wunderground v.1.15,2013-01-09 13:24:00,
2013-01-09 07:28:00,30.3,28.8,30.22,WSW,243,6.0,8.0,94,0.00,,,0.00,Wunderground v.1.15,2013-01-09 13:28:00,
2013-01-09 07:30:00,30.3,28.8,30.22,WSW,245,6.0,7.0,94,0.00,,,0.00,Wunderground v.1.15,2013-01-09 13:30:00,
2013-01-09 07:32:00,30.2,28.7,30.22,WSW,238,6.0,7.0,94,0.00,,,0.00,Wunderground v.1.15,2013-01-09 13:32:00,
2013-01-09 07:36:00,30.5,29.0,30.22,SSW,201,6.0,7.0,94,0.00,,,0.00,Wunderground v.1.15,2013-01-09 13:36:00,
2013-01-09 07:38:00,30.6,29.1,30.22,SSW,209,6.0,7.0,94,0.00,,,0.00,Wunderground v.1.15,2013-01-09 13:38:00,
2013-01-09 07:40:00,30.7,29.2,30.22,West,264,6.0,6.0,94,0.00,,,0.00,Wunderground v.1.15,2013-01-09 13:40:00,
2013-01-09 07:42:00,30.8,29.3,30.22,WSW,238,6.0,7.0,94,0.00,,,0.00,Wunderground v.1.15,2013-01-09 13:42:00,
2013-01-09 07:44:00,30.9,29.4,30.22,WSW,250,6.0,7.0,94,0.00,,,0.00,Wunderground v.1.15,2013-01-09 13:44:00,
2013-01-09 07:46:00,30.9,29.1,30.23,WSW,238,5.0,7.0,93,0.00,,,0.00,Wunderground v.1.15,2013-01-09 13:46:00,
2013-01-09 07:52:00,31.1,29.3,30.23,SW,217,4.0,7.0,93,0.00,,,0.00,Wunderground v.1.15,2013-01-09 13:52:00,
2013-01-09 07:54:00,31.2,29.4,30.23,SW,217,4.0,7.0,93,0.00,,,0.00,Wunderground v.1.15,2013-01-09 13:54:00,
2013-01-09 07:58:00,31.3,29.5,30.23,West,259,4.0,7.0,93,0.00,,,0.00,Wunderground v.1.15,2013-01-09 13:58:00,
2013-01-09 08:00:00,31.3,29.5,30.24,WSW,238,4.0,4.0,93,0.00,,,0.00,Wunderground v.1.15,2013-01-09 14:00:00,
2013-01-09 08:02:00,31.4,29.6,30.24,SW,226,4.0,5.0,93,0.00,,,0.00,Wunderground v.1.15,2013-01-09 14:02:00,
2013-01-09 08:04:00,31.5,29.7,30.24,SW,225,4.0,7.0,93,0.00,,,0.00,Wunderground v.1.15,2013-01-09 14:04:00,
2013-01-09 08:06:00,31.6,30.1,30.24,SSW,211,4.0,7.0,94,0.00,,,0.00,Wunderground v.1.15,2013-01-09 14:06:00,
2013-01-09 08:10:00,31.9,30.1,30.24,SW,230,4.0,7.0,93,0.00,,,0.00,Wunderground v.1.15,2013-01-09 14:10:00,
2013-01-09 08:12:00,32.1,30.3,30.24,WSW,253,5.0,7.0,93,0.00,,,0.00,Wunderground v.1.15,2013-01-09 14:12:00,
2013-01-09 08:14:00,32.3,30.5,30.25,SSW,212,5.0,7.0,93,0.00,,,0.00,Wunderground v.1.15,2013-01-09 14:14:00,
2013-01-09 08:18:00,32.6,30.8,30.25,SW,217,5.0,7.0,93,0.00,,,0.00,Wunderground v.1.15,2013-01-09 14:18:00,
2013-01-09 08:20:00,32.7,30.9,30.25,SW,235,6.0,7.0,93,0.00,,,0.00,Wunderground v.1.15,2013-01-09 14:20:00,
2013-01-09 08:24:00,33.1,31.3,30.25,SSW,211,6.0,7.0,93,0.00,,,0.00,Wunderground v.1.15,2013-01-09 14:24:00,
2013-01-09 08:28:00,33.4,31.3,30.25,SSW,201,7.0,9.0,92,0.00,,,0.00,Wunderground v.1.15,2013-01-09 14:28:00,
2013-01-09 08:30:00,33.4,31.3,30.25,SW,225,7.0,11.0,92,0.00,,,0.00,Wunderground v.1.15,2013-01-09 14:30:00,
2013-01-09 08:36:00,33.8,31.7,30.26,SW,221,9.0,12.0,92,0.00,,,0.00,Wunderground v.1.15,2013-01-09 14:36:00,
2013-01-09 08:40:00,34.0,31.9,30.26,SW,227,9.0,11.0,92,0.00,,,0.00,Wunderground v.1.15,2013-01-09 14:40:00,
2013-01-09 08:44:00,34.2,31.8,30.27,SW,225,9.0,12.0,91,0.00,,,0.00,Wunderground v.1.15,2013-01-09 14:44:00,
2013-01-09 08:48:00,34.5,32.1,30.28,SSW,212,9.0,12.0,91,0.00,,,0.00,Wunderground v.1.15,2013-01-09 14:48:00,
2013-01-09 08:50:00,34.7,32.3,30.28,SW,214,9.0,9.0,91,0.00,,,0.00,Wunderground v.1.15,2013-01-09 14:50:00,
2013-01-09 08:52:00,34.8,32.4,30.28,SW,217,9.0,9.0,91,0.00,,,0.00,Wunderground v.1.15,2013-01-09 14:52:00,
2013-01-09 08:58:00,35.3,32.7,30.27,West,264,8.0,12.0,90,0.00,,,0.00,Wunderground v.1.15,2013-01-09 14:58:00,
2013-01-09 09:00:00,35.5,32.9,30.27,SW,224,8.0,11.0,90,0.00,,,0.00,Wunderground v.1.15,2013-01-09 15:00:00,
2013-01-09 09:04:00,35.9,33.0,30.27,SSW,211,8.0,11.0,89,0.00,,,0.00,Wunderground v.1.15,2013-01-09 15:04:00,
2013-01-09 09:08:00,36.1,33.2,30.27,WNW,287,9.0,11.0,89,0.00,,,0.00,Wunderground v.1.15,2013-01-09 15:08:00,
2013-01-09 09:10:00,36.3,33.4,30.27,West,260,9.0,9.0,89,0.00,,,0.00,Wunderground v.1.15,2013-01-09 15:10:00,
2013-01-09 09:12:00,36.4,33.2,30.27,WSW,248,9.0,12.0,88,0.00,,,0.00,Wunderground v.1.15,2013-01-09 15:12:00,
2013-01-09 09:14:00,36.6,33.4,30.28,SW,228,9.0,13.0,88,0.00,,,0.00,Wunderground v.1.15,2013-01-09 15:14:00,
2013-01-09 09:16:00,36.8,33.6,30.28,SW,229,9.0,13.0,88,0.00,,,0.00,Wunderground v.1.15,2013-01-09 15:16:00,
2013-01-09 09:18:00,36.9,33.4,30.28,WSW,250,9.0,13.0,87,0.00,,,0.00,Wunderground v.1.15,2013-01-09 15:18:00,
2013-01-09 09:22:00,37.1,33.6,30.28,West,266,10.0,11.0,87,0.00,,,0.00,Wunderground v.1.15,2013-01-09 15:22:00,
2013-01-09 09:24:00,37.2,33.4,30.28,WSW,249,10.0,11.0,86,0.00,,,0.00,Wunderground v.1.15,2013-01-09 15:24:00,
2013-01-09 09:26:00,37.3,33.5,30.28,SW,222,10.0,11.0,86,0.00,,,0.00,Wunderground v.1.15,2013-01-09 15:26:00,
2013-01-09 09:28:00,37.4,33.6,30.28,SW,235,10.0,13.0,86,0.00,,,0.00,Wunderground v.1.15,2013-01-09 15:28:00,
2013-01-09 09:32:00,37.7,33.9,30.29,WSW,249,10.0,10.0,86,0.00,,,0.00,Wunderground v.1.15,2013-01-09 15:32:00,
2013-01-09 09:34:00,37.8,34.0,30.29,SW,225,10.0,12.0,86,0.00,,,0.00,Wunderground v.1.15,2013-01-09 15:34:00,
2013-01-09 09:36:00,38.0,33.9,30.29,WSW,253,10.0,14.0,85,0.00,,,0.00,Wunderground v.1.15,2013-01-09 15:36:00,
2013-01-09 09:40:00,38.3,34.2,30.30,SW,228,10.0,11.0,85,0.00,,,0.00,Wunderground v.1.15,2013-01-09 15:40:00,
2013-01-09 09:42:00,38.4,34.3,30.30,SW,225,11.0,11.0,85,0.00,,,0.00,Wunderground v.1.15,2013-01-09 15:42:00,
2013-01-09 09:44:00,38.5,34.4,30.30,WSW,256,11.0,11.0,85,0.00,,,0.00,Wunderground v.1.15,2013-01-09 15:44:00,
2013-01-09 09:48:00,38.8,34.4,30.30,WNW,293,10.0,11.0,84,0.00,,,0.00,Wunderground v.1.15,2013-01-09 15:48:00,
2013-01-09 09:50:00,38.9,34.5,30.30,WSW,249,11.0,13.0,84,0.00,,,0.00,Wunderground v.1.15,2013-01-09 15:50:00,
2013-01-09 09:54:00,38.9,34.2,30.31,SW,233,11.0,15.0,83,0.00,,,0.00,Wunderground v.1.15,2013-01-09 15:54:00,
2013-01-09 09:56:00,39.1,34.4,30.30,West,270,12.0,15.0,83,0.00,,,0.00,Wunderground v.1.15,2013-01-09 15:56:00,
2013-01-09 09:58:00,39.1,34.4,30.31,SW,231,12.0,15.0,83,0.00,,,0.00,Wunderground v.1.15,2013-01-09 15:58:00,
2013-01-09 10:00:00,39.3,34.6,30.31,West,262,11.0,11.0,83,0.00,,,0.00,Wunderground v.1.15,2013-01-09 16:00:00,
2013-01-09 10:06:00,39.7,34.7,30.30,WSW,250,10.0,12.0,82,0.00,,,0.00,Wunderground v.1.15,2013-01-09 16:06:00,
2013-01-09 10:08:00,39.8,34.8,30.30,WSW,239,10.0,12.0,82,0.00,,,0.00,Wunderground v.1.15,2013-01-09 16:08:00,
2013-01-09 10:12:00,40.0,34.9,30.31,West,278,10.0,12.0,82,0.00,,,0.00,Wunderground v.1.15,2013-01-09 16:12:00,
2013-01-09 10:14:00,40.2,35.1,30.31,WSW,252,10.0,12.0,82,0.00,,,0.00,Wunderground v.1.15,2013-01-09 16:14:00,
2013-01-09 10:18:00,40.6,35.2,30.30,WSW,242,10.0,12.0,81,0.00,,,0.00,Wunderground v.1.15,2013-01-09 16:18:00,
2013-01-09 10:20:00,40.7,35.3,30.31,SW,231,10.0,13.0,81,0.00,,,0.00,Wunderground v.1.15,2013-01-09 16:20:00,
2013-01-09 10:24:00,40.9,35.2,30.32,SW,231,11.0,17.0,80,0.00,,,0.00,Wunderground v.1.15,2013-01-09 16:24:00,
2013-01-09 10:28:00,41.2,35.5,30.32,WSW,252,11.0,17.0,80,0.00,,,0.00,Wunderground v.1.15,2013-01-09 16:28:00,
2013-01-09 10:30:00,41.3,35.6,30.32,WSW,240,11.0,11.0,80,0.00,,,0.00,Wunderground v.1.15,2013-01-09 16:30:00,
2013-01-09 10:32:00,41.4,35.7,30.32,WSW,255,11.0,11.0,80,0.00,,,0.00,Wunderground v.1.15,2013-01-09 16:32:00,
2013-01-09 10:38:00,41.6,35.6,30.32,SW,236,12.0,13.0,79,0.00,,,0.00,Wunderground v.1.15,2013-01-09 16:38:00,
2013-01-09 10:40:00,41.8,36.1,30.32,WSW,245,11.0,14.0,80,0.00,,,0.00,Wunderground v.1.15,2013-01-09 16:40:00,
2013-01-09 10:42:00,41.9,35.9,30.32,WSW,243,12.0,16.0,79,0.00,,,0.00,Wunderground v.1.15,2013-01-09 16:42:00,
2013-01-09 10:48:00,42.2,36.2,30.32,West,263,12.0,16.0,79,0.00,,,0.00,Wunderground v.1.15,2013-01-09 16:48:00,
2013-01-09 10:50:00,42.2,36.2,30.33,WSW,243,13.0,14.0,79,0.00,,,0.00,Wunderground v.1.15,2013-01-09 16:50:00,
2013-01-09 10:52:00,42.2,36.2,30.33,SW,217,13.0,14.0,79,0.00,,,0.00,Wunderground v.1.15,2013-01-09 16:52:00,
2013-01-09 10:56:00,42.4,36.0,30.33,WSW,253,13.0,20.0,78,0.00,,,0.00,Wunderground v.1.15,2013-01-09 16:56:00,
2013-01-09 10:58:00,42.6,36.2,30.33,SW,221,13.0,20.0,78,0.00,,,0.00,Wunderground v.1.15,2013-01-09 16:58:00,
2013-01-09 11:00:00,42.6,36.2,30.33,SW,231,14.0,14.0,78,0.00,,,0.00,Wunderground v.1.15,2013-01-09 17:00:00,
2013-01-09 11:02:00,42.7,36.3,30.33,WSW,240,14.0,16.0,78,0.00,,,0.00,Wunderground v.1.15,2013-01-09 17:02:00,
2013-01-09 11:04:00,42.7,36.0,30.33,WSW,250,14.0,16.0,77,0.00,,,0.00,Wunderground v.1.15,2013-01-09 17:04:00,
2013-01-09 11:06:00,42.7,36.0,30.33,West,266,14.0,16.0,77,0.00,,,0.00,Wunderground v.1.15,2013-01-09 17:06:00,
2013-01-09 11:10:00,42.9,36.5,30.33,WSW,252,14.0,14.0,78,0.00,,,0.00,Wunderground v.1.15,2013-01-09 17:10:00,
2013-01-09 11:14:00,43.0,36.3,30.33,SW,219,13.0,14.0,77,0.00,,,0.00,Wunderground v.1.15,2013-01-09 17:14:00,
2013-01-09 11:18:00,43.2,36.1,30.34,SW,219,13.0,15.0,76,0.00,,,0.00,Wunderground v.1.15,2013-01-09 17:18:00,
2013-01-09 11:20:00,43.2,36.1,30.34,SW,228,13.0,13.0,76,0.00,,,0.00,Wunderground v.1.15,2013-01-09 17:20:00,
2013-01-09 11:22:00,43.4,36.0,30.34,SW,224,13.0,13.0,75,0.00,,,0.00,Wunderground v.1.15,2013-01-09 17:22:00,
2013-01-09 11:26:00,43.6,35.9,30.34,WSW,242,13.0,19.0,74,0.00,,,0.00,Wunderground v.1.15,2013-01-09 17:26:00,
2013-01-09 11:28:00,43.9,36.5,30.34,SW,225,12.0,19.0,75,0.00,,,0.00,Wunderground v.1.15,2013-01-09 17:28:00,
2013-01-09 11:32:00,44.1,36.0,30.35,WSW,239,13.0,17.0,73,0.00,,,0.00,Wunderground v.1.15,2013-01-09 17:32:00,
2013-01-09 11:34:00,44.4,36.3,30.35,West,276,13.0,17.0,73,0.00,,,0.00,Wunderground v.1.15,2013-01-09 17:34:00,
2013-01-09 11:36:00,44.5,35.7,30.35,West,266,13.0,17.0,71,0.00,,,0.00,Wunderground v.1.15,2013-01-09 17:36:00,
2013-01-09 11:38:00,44.6,35.8,30.35,WNW,300,14.0,18.0,71,0.00,,,0.00,Wunderground v.1.15,2013-01-09 17:38:00,
2013-01-09 11:42:00,44.8,35.6,30.35,WSW,248,14.0,17.0,70,0.00,,,0.00,Wunderground v.1.15,2013-01-09 17:42:00,
2013-01-09 11:44:00,45.0,36.2,30.34,WSW,248,14.0,17.0,71,0.00,,,0.00,Wunderground v.1.15,2013-01-09 17:44:00,
2013-01-09 11:48:00,45.4,34.7,30.34,West,267,14.0,17.0,66,0.00,,,0.00,Wunderground v.1.15,2013-01-09 17:48:00,
2013-01-09 11:54:00,45.5,34.4,30.34,West,267,16.0,18.0,65,0.00,,,0.00,Wunderground v.1.15,2013-01-09 17:54:00,
2013-01-09 11:56:00,45.5,34.8,30.34,SW,231,16.0,20.0,66,0.00,,,0.00,Wunderground v.1.15,2013-01-09 17:56:00,
2013-01-09 11:58:00,45.7,34.6,30.34,WSW,239,15.0,20.0,65,0.00,,,0.00,Wunderground v.1.15,2013-01-09 17:58:00,
2013-01-09 12:04:00,45.7,33.8,30.35,West,260,15.0,19.0,63,0.00,,,0.00,Wunderground v.1.15,2013-01-09 18:04:00,
2013-01-09 12:06:00,45.6,34.1,30.35,West,267,15.0,19.0,64,0.00,,,0.00,Wunderground v.1.15,2013-01-09 18:06:00,
2013-01-09 12:10:00,45.4,33.9,30.35,WSW,241,17.0,19.0,64,0.00,,,0.00,Wunderground v.1.15,2013-01-09 18:10:00,
2013-01-09 12:12:00,45.3,34.2,30.34,WNW,288,17.0,19.0,65,0.00,,,0.00,Wunderground v.1.15,2013-01-09 18:12:00,
2013-01-09 12:16:00,45.2,33.7,30.34,WNW,299,17.0,19.0,64,0.00,,,0.00,Wunderground v.1.15,2013-01-09 18:16:00,
2013-01-09 12:22:00,45.3,33.4,30.35,WSW,256,17.0,21.0,63,0.00,,,0.00,Wunderground v.1.15,2013-01-09 18:22:00,
2013-01-09 12:26:00,45.6,34.1,30.34,West,271,16.0,21.0,64,0.00,,,0.00,Wunderground v.1.15,2013-01-09 18:26:00,
2013-01-09 12:28:00,45.7,33.4,30.34,West,278,15.0,21.0,62,0.00,,,0.00,Wunderground v.1.15,2013-01-09 18:28:00,
2013-01-09 12:30:00,45.8,33.5,30.34,WNW,291,14.0,20.0,62,0.00,,,0.00,Wunderground v.1.15,2013-01-09 18:30:00,
2013-01-09 12:34:00,45.7,32.6,30.34,West,276,15.0,20.0,60,0.00,,,0.00,Wunderground v.1.15,2013-01-09 18:34:00,
2013-01-09 12:36:00,45.5,32.4,30.34,West,260,15.0,20.0,60,0.00,,,0.00,Wunderground v.1.15,2013-01-09 18:36:00,
2013-01-09 12:40:00,45.3,31.0,30.34,West,274,16.0,18.0,57,0.00,,,0.00,Wunderground v.1.15,2013-01-09 18:40:00,
2013-01-09 12:42:00,45.3,30.5,30.34,WSW,251,16.0,18.0,56,0.00,,,0.00,Wunderground v.1.15,2013-01-09 18:42:00,
2013-01-09 12:44:00,45.4,31.0,30.33,WNW,284,17.0,18.0,57,0.00,,,0.00,Wunderground v.1.15,2013-01-09 18:44:00,
2013-01-09 12:46:00,45.5,31.1,30.33,West,278,17.0,20.0,57,0.00,,,0.00,Wunderground v.1.15,2013-01-09 18:46:00,
2013-01-09 12:48:00,45.5,31.1,30.34,WNW,291,17.0,20.0,57,0.00,,,0.00,Wunderground v.1.15,2013-01-09 18:48:00,
2013-01-09 12:50:00,45.6,31.7,30.34,WNW,284,16.0,16.0,58,0.00,,,0.00,Wunderground v.1.15,2013-01-09 18:50:00,
2013-01-09 12:52:00,45.7,31.8,30.34,NW,311,16.0,16.0,58,0.00,,,0.00,Wunderground v.1.15,2013-01-09 18:52:00,
2013-01-09 12:56:00,45.8,31.4,30.34,West,271,15.0,18.0,57,0.00,,,0.00,Wunderground v.1.15,2013-01-09 18:56:00,
2013-01-09 12:58:00,45.8,31.9,30.34,West,262,15.0,18.0,58,0.00,,,0.00,Wunderground v.1.15,2013-01-09 18:58:00,
2013-01-09 13:00:00,45.8,31.4,30.33,WNW,295,15.0,15.0,57,0.00,,,0.00,Wunderground v.1.15,2013-01-09 19:00:00,
2013-01-09 13:02:00,46.0,32.5,30.34,WNW,287,15.0,18.0,59,0.00,,,0.00,Wunderground v.1.15,2013-01-09 19:02:00,
2013-01-09 13:06:00,46.0,30.7,30.34,WSW,248,14.0,18.0,55,0.00,,,0.00,Wunderground v.1.15,2013-01-09 19:06:00,
2013-01-09 13:08:00,45.9,30.2,30.34,WNW,297,14.0,19.0,54,0.00,,,0.00,Wunderground v.1.15,2013-01-09 19:08:00,
2013-01-09 13:10:00,45.9,29.2,30.34,West,278,13.0,22.0,52,0.00,,,0.00,Wunderground v.1.15,2013-01-09 19:10:00,
2013-01-09 13:12:00,45.7,28.6,30.34,West,277,14.0,22.0,51,0.00,,,0.00,Wunderground v.1.15,2013-01-09 19:12:00,
2013-01-09 13:14:00,45.7,28.1,30.35,WNW,286,15.0,22.0,50,0.00,,,0.00,Wunderground v.1.15,2013-01-09 19:14:00,
2013-01-09 13:18:00,45.6,28.5,30.35,West,263,15.0,22.0,51,0.00,,,0.00,Wunderground v.1.15,2013-01-09 19:18:00,
2013-01-09 13:22:00,45.7,28.1,30.35,WNW,284,14.0,17.0,50,0.00,,,0.00,Wunderground v.1.15,2013-01-09 19:22:00,
2013-01-09 13:28:00,45.7,28.1,30.36,SW,219,13.0,17.0,50,0.00,,,0.00,Wunderground v.1.15,2013-01-09 19:28:00,
2013-01-09 13:30:00,45.5,28.4,30.35,West,281,13.0,13.0,51,0.00,,,0.00,Wunderground v.1.15,2013-01-09 19:30:00,
2013-01-09 13:32:00,45.4,28.3,30.36,West,276,12.0,13.0,51,0.00,,,0.00,Wunderground v.1.15,2013-01-09 19:32:00,
2013-01-09 13:38:00,45.5,29.3,30.37,WNW,290,11.0,13.0,53,0.00,,,0.00,Wunderground v.1.15,2013-01-09 19:38:00,
2013-01-09 13:42:00,45.5,29.3,30.37,West,273,10.0,12.0,53,0.00,,,0.00,Wunderground v.1.15,2013-01-09 19:42:00,
2013-01-09 13:46:00,45.4,28.8,30.38,WNW,283,11.0,18.0,52,0.00,,,0.00,Wunderground v.1.15,2013-01-09 19:46:00,
2013-01-09 13:48:00,45.3,28.7,30.37,SW,229,12.0,18.0,52,0.00,,,0.00,Wunderground v.1.15,2013-01-09 19:48:00,
2013-01-09 13:50:00,45.2,28.6,30.37,West,278,13.0,16.0,52,0.00,,,0.00,Wunderground v.1.15,2013-01-09 19:50:00,
2013-01-09 13:56:00,45.1,28.5,30.36,West,281,14.0,16.0,52,0.00,,,0.00,Wunderground v.1.15,2013-01-09 19:56:00,
2013-01-09 13:58:00,45.1,28.5,30.36,West,273,14.0,16.0,52,0.00,,,0.00,Wunderground v.1.15,2013-01-09 19:58:00,
2013-01-09 14:00:00,45.1,29.0,30.37,WNW,292,13.0,17.0,53,0.00,,,0.00,Wunderground v.1.15,2013-01-09 20:00:00,
2013-01-09 14:02:00,45.2,29.1,30.37,West,280,13.0,17.0,53,0.00,,,0.00,Wunderground v.1.15,2013-01-09 20:02:00,
2013-01-09 14:04:00,45.1,28.5,30.37,WNW,294,13.0,17.0,52,0.00,,,0.00,Wunderground v.1.15,2013-01-09 20:04:00,
2013-01-09 14:06:00,45.1,29.0,30.38,WSW,250,13.0,17.0,53,0.00,,,0.00,Wunderground v.1.15,2013-01-09 20:06:00,
2013-01-09 14:10:00,45.0,28.9,30.38,West,278,14.0,18.0,53,0.00,,,0.00,Wunderground v.1.15,2013-01-09 20:10:00,
2013-01-09 14:12:00,45.0,28.9,30.38,West,264,14.0,18.0,53,0.00,,,0.00,Wunderground v.1.15,2013-01-09 20:12:00,
2013-01-09 14:14:00,45.0,28.9,30.38,West,281,14.0,18.0,53,0.00,,,0.00,Wunderground v.1.15,2013-01-09 20:14:00,
2013-01-09 14:16:00,44.9,28.8,30.38,West,276,15.0,18.0,53,0.00,,,0.00,Wunderground v.1.15,2013-01-09 20:16:00,
2013-01-09 14:18:00,44.9,29.2,30.38,WNW,294,16.0,18.0,54,0.00,,,0.00,Wunderground v.1.15,2013-01-09 20:18:00,
2013-01-09 14:20:00,44.8,29.2,30.38,West,274,16.0,17.0,54,0.00,,,0.00,Wunderground v.1.15,2013-01-09 20:20:00,
2013-01-09 14:26:00,44.7,29.5,30.37,WNW,287,16.0,17.0,55,0.00,,,0.00,Wunderground v.1.15,2013-01-09 20:26:00,
2013-01-09 14:30:00,44.6,29.0,30.37,WNW,289,15.0,21.0,54,0.00,,,0.00,Wunderground v.1.15,2013-01-09 20:30:00,
2013-01-09 14:34:00,44.4,28.3,30.38,WNW,290,16.0,21.0,53,0.00,,,0.00,Wunderground v.1.15,2013-01-09 20:34:00,
2013-01-09 14:36:00,44.4,28.3,30.38,WNW,294,16.0,21.0,53,0.00,,,0.00,Wunderground v.1.15,2013-01-09 20:36:00,
2013-01-09 14:38:00,44.3,27.3,30.38,WNW,284,18.0,22.0,51,0.00,,,0.00,Wunderground v.1.15,2013-01-09 20:38:00,
2013-01-09 14:40:00,44.3,27.8,30.38,West,276,18.0,18.0,52,0.00,,,0.00,Wunderground v.1.15,2013-01-09 20:40:00,
2013-01-09 14:42:00,44.2,28.1,30.38,NW,304,18.0,22.0,53,0.00,,,0.00,Wunderground v.1.15,2013-01-09 20:42:00,
2013-01-09 14:44:00,44.1,28.0,30.39,NW,308,19.0,22.0,53,0.00,,,0.00,Wunderground v.1.15,2013-01-09 20:44:00,
2013-01-09 14:46:00,44.1,28.0,30.39,WNW,290,19.0,22.0,53,0.00,,,0.00,Wunderground v.1.15,2013-01-09 20:46:00,
2013-01-09 14:52:00,44.0,28.4,30.39,WNW,295,18.0,18.0,54,0.00,,,0.00,Wunderground v.1.15,2013-01-09 20:52:00,
2013-01-09 14:56:00,43.9,28.3,30.38,WNW,301,18.0,19.0,54,0.00,,,0.00,Wunderground v.1.15,2013-01-09 20:56:00,
2013-01-09 14:58:00,44.0,28.9,30.38,WNW,291,17.0,19.0,55,0.00,,,0.00,Wunderground v.1.15,2013-01-09 20:58:00,
2013-01-09 15:00:00,44.1,29.4,30.39,WNW,300,16.0,16.0,56,0.00,,,0.00,Wunderground v.1.15,2013-01-09 21:00:00,
2013-01-09 15:06:00,44.0,28.4,30.39,WNW,294,14.0,18.0,54,0.00,,,0.00,Wunderground v.1.15,2013-01-09 21:06:00,
2013-01-09 15:08:00,43.9,28.3,30.39,WNW,294,14.0,18.0,54,0.00,,,0.00,Wunderground v.1.15,2013-01-09 21:08:00,
2013-01-09 15:12:00,43.6,28.5,30.38,WNW,291,16.0,16.0,55,0.00,,,0.00,Wunderground v.1.15,2013-01-09 21:12:00,
2013-01-09 15:16:00,43.5,28.8,30.38,WNW,292,15.0,16.0,56,0.00,,,0.00,Wunderground v.1.15,2013-01-09 21:16:00,
2013-01-09 15:18:00,43.5,28.8,30.38,WNW,294,15.0,16.0,56,0.00,,,0.00,Wunderground v.1.15,2013-01-09 21:18:00,
2013-01-09 15:20:00,43.4,28.7,30.38,WNW,298,15.0,15.0,56,0.00,,,0.00,Wunderground v.1.15,2013-01-09 21:20:00,
2013-01-09 15:22:00,43.4,28.7,30.38,NW,304,14.0,15.0,56,0.00,,,0.00,Wunderground v.1.15,2013-01-09 21:22:00,
2013-01-09 15:24:00,43.4,28.7,30.39,WNW,285,14.0,15.0,56,0.00,,,0.00,Wunderground v.1.15,2013-01-09 21:24:00,
2013-01-09 15:28:00,43.1,28.9,30.39,NW,312,13.0,15.0,57,0.00,,,0.00,Wunderground v.1.15,2013-01-09 21:28:00,
2013-01-09 15:30:00,43.1,28.9,30.39,NW,306,12.0,12.0,57,0.00,,,0.00,Wunderground v.1.15,2013-01-09 21:30:00,
2013-01-09 15:32:00,43.0,28.8,30.39,WNW,292,13.0,15.0,57,0.00,,,0.00,Wunderground v.1.15,2013-01-09 21:32:00,
2013-01-09 15:34:00,42.9,27.8,30.39,WNW,300,13.0,15.0,55,0.00,,,0.00,Wunderground v.1.15,2013-01-09 21:34:00,
2013-01-09 15:38:00,42.7,28.1,30.40,WNW,284,13.0,15.0,56,0.00,,,0.00,Wunderground v.1.15,2013-01-09 21:38:00,
2013-01-09 15:40:00,42.7,27.6,30.40,WNW,292,14.0,17.0,55,0.00,,,0.00,Wunderground v.1.15,2013-01-09 21:40:00,
2013-01-09 15:42:00,42.5,27.9,30.40,WNW,290,14.0,17.0,56,0.00,,,0.00,Wunderground v.1.15,2013-01-09 21:42:00,
2013-01-09 15:46:00,42.4,28.2,30.40,WNW,288,14.0,17.0,57,0.00,,,0.00,Wunderground v.1.15,2013-01-09 21:46:00,
2013-01-09 15:52:00,41.9,28.2,30.40,NW,304,14.0,14.0,58,0.00,,,0.00,Wunderground v.1.15,2013-01-09 21:52:00,
2013-01-09 15:58:00,41.4,28.1,30.41,WNW,285,13.0,15.0,59,0.00,,,0.00,Wunderground v.1.15,2013-01-09 21:58:00,
2013-01-09 16:00:00,41.3,28.4,30.41,West,278,12.0,12.0,60,0.00,,,0.00,Wunderground v.1.15,2013-01-09 22:00:00,
2013-01-09 16:04:00,41.1,28.7,30.41,West,277,10.0,12.0,61,0.00,,,0.00,Wunderground v.1.15,2013-01-09 22:04:00,
2013-01-09 16:06:00,40.9,28.5,30.42,West,278,10.0,12.0,61,0.00,,,0.00,Wunderground v.1.15,2013-01-09 22:06:00,
2013-01-09 16:08:00,40.8,28.4,30.42,WNW,295,9.0,12.0,61,0.00,,,0.00,Wunderground v.1.15,2013-01-09 22:08:00,
2013-01-09 16:12:00,40.5,28.5,30.42,WNW,301,8.0,8.0,62,0.00,,,0.00,Wunderground v.1.15,2013-01-09 22:12:00,
2013-01-09 16:16:00,40.2,28.2,30.42,WSW,248,8.0,10.0,62,0.00,,,0.00,Wunderground v.1.15,2013-01-09 22:16:00,
2013-01-09 16:20:00,40.0,28.4,30.43,WNW,285,7.0,7.0,63,0.00,,,0.00,Wunderground v.1.15,2013-01-09 22:20:00,
2013-01-09 16:22:00,39.8,28.2,30.42,West,276,6.0,7.0,63,0.00,,,0.00,Wunderground v.1.15,2013-01-09 22:22:00,
2013-01-09 16:28:00,39.2,28.0,30.43,WNW,285,5.0,7.0,64,0.00,,,0.00,Wunderground v.1.15,2013-01-09 22:28:00,
2013-01-09 16:34:00,38.7,27.9,30.43,SW,221,5.0,7.0,65,0.00,,,0.00,Wunderground v.1.15,2013-01-09 22:34:00,
2013-01-09 16:36:00,38.5,28.1,30.43,WNW,285,5.0,7.0,66,0.00,,,0.00,Wunderground v.1.15,2013-01-09 22:36:00,
2013-01-09 16:40:00,38.0,27.6,30.43,WNW,285,4.0,7.0,66,0.00,,,0.00,Wunderground v.1.15,2013-01-09 22:40:00,
2013-01-09 16:44:00,37.6,27.6,30.43,WSW,253,4.0,7.0,67,0.00,,,0.00,Wunderground v.1.15,2013-01-09 22:44:00,
2013-01-09 16:48:00,37.4,27.8,30.44,WSW,245,3.0,7.0,68,0.00,,,0.00,Wunderground v.1.15,2013-01-09 22:48:00,
2013-01-09 16:50:00,37.3,27.7,30.44,SW,231,3.0,7.0,68,0.00,,,0.00,Wunderground v.1.15,2013-01-09 22:50:00,
2013-01-09 16:52:00,37.2,27.6,30.43,WSW,255,4.0,7.0,68,0.00,,,0.00,Wunderground v.1.15,2013-01-09 22:52:00,
2013-01-09 16:56:00,36.9,27.3,30.43,WSW,257,3.0,7.0,68,0.00,,,0.00,Wunderground v.1.15,2013-01-09 22:56:00,
2013-01-09 16:58:00,36.7,27.5,30.43,West,260,3.0,7.0,69,0.00,,,0.00,Wunderground v.1.15,2013-01-09 22:58:00,
2013-01-09 17:00:00,36.6,27.4,30.43,WSW,245,3.0,7.0,69,0.00,,,0.00,Wunderground v.1.15,2013-01-09 23:00:00,
2013-01-09 17:06:00,36.3,27.4,30.44,West,276,3.0,7.0,70,0.00,,,0.00,Wunderground v.1.15,2013-01-09 23:06:00,
2013-01-09 17:08:00,36.1,27.3,30.44,West,264,3.0,7.0,70,0.00,,,0.00,Wunderground v.1.15,2013-01-09 23:08:00,
2013-01-09 17:12:00,35.8,27.3,30.44,WSW,252,3.0,7.0,71,0.00,,,0.00,Wunderground v.1.15,2013-01-09 23:12:00,
2013-01-09 17:18:00,35.7,27.6,30.45,SSW,203,4.0,7.0,72,0.00,,,0.00,Wunderground v.1.15,2013-01-09 23:18:00,
2013-01-09 17:22:00,35.6,27.5,30.45,SW,235,4.0,7.0,72,0.00,,,0.00,Wunderground v.1.15,2013-01-09 23:22:00,
2013-01-09 17:24:00,35.5,27.7,30.45,WSW,252,4.0,7.0,73,0.00,,,0.00,Wunderground v.1.15,2013-01-09 23:24:00,
2013-01-09 17:28:00,34.9,27.5,30.45,WSW,249,4.0,7.0,74,0.00,,,0.00,Wunderground v.1.15,2013-01-09 23:28:00,
2013-01-09 17:30:00,34.8,27.4,30.45,WSW,238,3.0,7.0,74,0.00,,,0.00,Wunderground v.1.15,2013-01-09 23:30:00,
2013-01-09 17:32:00,34.7,27.3,30.45,SW,231,3.0,7.0,74,0.00,,,0.00,Wunderground v.1.15,2013-01-09 23:32:00,
2013-01-09 17:34:00,34.5,27.4,30.45,WSW,250,3.0,7.0,75,0.00,,,0.00,Wunderground v.1.15,2013-01-09 23:34:00,
2013-01-09 17:38:00,34.5,27.4,30.45,WNW,284,3.0,7.0,75,0.00,,,0.00,Wunderground v.1.15,2013-01-09 23:38:00,
2013-01-09 17:40:00,34.5,27.4,30.44,WSW,243,3.0,3.0,75,0.00,,,0.00,Wunderground v.1.15,2013-01-09 23:40:00,
2013-01-09 17:42:00,34.5,27.4,30.44,WSW,250,3.0,7.0,75,0.00,,,0.00,Wunderground v.1.15,2013-01-09 23:42:00,
2013-01-09 17:44:00,34.6,27.5,30.44,West,269,2.0,7.0,75,0.00,,,0.00,Wunderground v.1.15,2013-01-09 23:44:00,
2013-01-09 17:48:00,34.7,27.3,30.44,NW,311,2.0,7.0,74,0.00,,,0.00,Wunderground v.1.15,2013-01-09 23:48:00,
2013-01-09 17:50:00,34.7,27.3,30.44,NW,320,3.0,7.0,74,0.00,,,0.00,Wunderground v.1.15,2013-01-09 23:50:00,
2013-01-09 17:52:00,34.8,27.4,30.44,NNW,330,3.0,7.0,74,0.00,,,0.00,Wunderground v.1.15,2013-01-09 23:52:00,
2013-01-09 17:54:00,34.8,27.4,30.43,NNW,330,4.0,7.0,74,0.00,,,0.00,Wunderground v.1.15,2013-01-09 23:54:00,
2013-01-09 17:56:00,34.9,27.5,30.43,NW,324,4.0,7.0,74,0.00,,,0.00,Wunderground v.1.15,2013-01-09 23:56:00,
2013-01-09 17:58:00,34.9,27.5,30.44,NNW,329,4.0,7.0,74,0.00,,,0.00,Wunderground v.1.15,2013-01-09 23:58:00,
2013-01-09 18:00:00,34.9,27.1,30.44,NNW,330,4.0,4.0,73,0.00,,,0.00,Wunderground v.1.15,2013-01-10 00:00:00,
2013-01-09 18:02:00,34.8,27.0,30.44,North,360,3.0,7.0,73,0.00,,,0.00,Wunderground v.1.15,2013-01-10 00:02:00,
2013-01-09 18:08:00,33.4,26.6,30.44,NNW,345,2.0,7.0,76,0.00,,,0.00,Wunderground v.1.15,2013-01-10 00:08:00,
2013-01-09 18:12:00,33.5,27.1,30.44,NNW,338,2.0,7.0,77,0.00,,,0.00,Wunderground v.1.15,2013-01-10 00:12:00,
2013-01-09 18:14:00,33.6,27.2,30.44,NNW,335,2.0,7.0,77,0.00,,,0.00,Wunderground v.1.15,2013-01-10 00:14:00,
2013-01-09 18:18:00,33.9,27.1,30.44,North,351,2.0,7.0,76,0.00,,,0.00,Wunderground v.1.15,2013-01-10 00:18:00,
2013-01-09 18:20:00,34.0,27.2,30.44,North,354,3.0,7.0,76,0.00,,,0.00,Wunderground v.1.15,2013-01-10 00:20:00,
2013-01-09 18:22:00,34.1,27.3,30.44,North,349,3.0,7.0,76,0.00,,,0.00,Wunderground v.1.15,2013-01-10 00:22:00,
2013-01-09 18:26:00,34.2,27.4,30.44,North,360,3.0,7.0,76,0.00,,,0.00,Wunderground v.1.15,2013-01-10 00:26:00,
2013-01-09 18:28:00,34.0,26.9,30.44,North,8,3.0,7.0,75,0.00,,,0.00,Wunderground v.1.15,2013-01-10 00:28:00,
2013-01-09 18:30:00,33.7,26.9,30.44,North,5,3.0,7.0,76,0.00,,,0.00,Wunderground v.1.15,2013-01-10 00:30:00,
2013-01-09 18:32:00,33.4,26.6,30.44,North,356,3.0,7.0,76,0.00,,,0.00,Wunderground v.1.15,2013-01-10 00:32:00,
2013-01-09 18:36:00,33.3,26.9,30.44,North,360,4.0,7.0,77,0.00,,,0.00,Wunderground v.1.15,2013-01-10 00:36:00,
2013-01-09 18:38:00,33.5,27.1,30.45,NNE,26,4.0,7.0,77,0.00,,,0.00,Wunderground v.1.15,2013-01-10 00:38:00,
2013-01-09 18:42:00,33.3,26.9,30.45,NNE,20,3.0,7.0,77,0.00,,,0.00,Wunderground v.1.15,2013-01-10 00:42:00,
2013-01-09 18:44:00,33.4,27.0,30.45,NNE,20,3.0,7.0,77,0.00,,,0.00,Wunderground v.1.15,2013-01-10 00:44:00,
2013-01-09 18:46:00,33.5,27.1,30.44,North,8,3.0,7.0,77,0.00,,,0.00,Wunderground v.1.15,2013-01-10 00:46:00,
2013-01-09 18:50:00,33.8,27.4,30.45,North,358,4.0,4.0,77,0.00,,,0.00,Wunderground v.1.15,2013-01-10 00:50:00,
2013-01-09 18:52:00,34.0,27.5,30.45,NW,326,4.0,7.0,77,0.00,,,0.00,Wunderground v.1.15,2013-01-10 00:52:00,
2013-01-09 18:54:00,34.2,27.4,30.45,NNW,327,3.0,7.0,76,0.00,,,0.00,Wunderground v.1.15,2013-01-10 00:54:00,
2013-01-09 18:56:00,34.5,27.7,30.45,NNW,335,3.0,7.0,76,0.00,,,0.00,Wunderground v.1.15,2013-01-10 00:56:00,
2013-01-09 18:58:00,34.7,27.6,30.45,NNW,335,2.0,7.0,75,0.00,,,0.00,Wunderground v.1.15,2013-01-10 00:58:00,
2013-01-09 19:02:00,35.0,27.9,30.45,NNW,335,2.0,7.0,75,0.00,,,0.00,Wunderground v.1.15,2013-01-10 01:02:00,
2013-01-09 19:04:00,35.0,27.5,30.45,NNW,335,2.0,7.0,74,0.00,,,0.00,Wunderground v.1.15,2013-01-10 01:04:00,
2013-01-09 19:08:00,35.1,27.6,30.46,NNW,336,1.0,7.0,74,0.00,,,0.00,Wunderground v.1.15,2013-01-10 01:08:00,
2013-01-09 19:12:00,35.2,27.7,30.45,NNW,336,1.0,7.0,74,0.00,,,0.00,Wunderground v.1.15,2013-01-10 01:12:00,
2013-01-09 19:16:00,35.4,27.9,30.45,NNW,336,2.0,7.0,74,0.00,,,0.00,Wunderground v.1.15,2013-01-10 01:16:00,
2013-01-09 19:18:00,35.6,27.8,30.45,NNW,336,2.0,7.0,73,0.00,,,0.00,Wunderground v.1.15,2013-01-10 01:18:00,
2013-01-09 19:24:00,35.8,27.7,30.45,NNW,336,1.0,7.0,72,0.00,,,0.00,Wunderground v.1.15,2013-01-10 01:24:00,
2013-01-09 19:26:00,35.7,27.6,30.46,NNW,335,1.0,7.0,72,0.00,,,0.00,Wunderground v.1.15,2013-01-10 01:26:00,
2013-01-09 19:28:00,35.5,27.4,30.46,East,86,1.0,7.0,72,0.00,,,0.00,Wunderground v.1.15,2013-01-10 01:28:00,
2013-01-09 19:34:00,32.9,25.8,30.46,ESE,103,2.0,7.0,75,0.00,,,0.00,Wunderground v.1.15,2013-01-10 01:34:00,
2013-01-09 19:38:00,32.2,25.8,30.46,East,93,3.0,7.0,77,0.00,,,0.00,Wunderground v.1.15,2013-01-10 01:38:00,
2013-01-09 19:40:00,31.8,25.7,30.46,East,94,3.0,3.0,78,0.00,,,0.00,Wunderground v.1.15,2013-01-10 01:40:00,
2013-01-09 19:42:00,31.6,25.8,30.46,ESE,108,2.0,7.0,79,0.00,,,0.00,Wunderground v.1.15,2013-01-10 01:42:00,
2013-01-09 19:48:00,30.8,25.4,30.47,SE,129,1.0,7.0,80,0.00,,,0.00,Wunderground v.1.15,2013-01-10 01:48:00,
2013-01-09 19:50:00,30.5,25.1,30.47,ESE,121,1.0,7.0,80,0.00,,,0.00,Wunderground v.1.15,2013-01-10 01:50:00,
2013-01-09 19:54:00,29.8,24.7,30.47,East,91,1.0,7.0,81,0.00,,,0.00,Wunderground v.1.15,2013-01-10 01:54:00,
2013-01-09 19:58:00,29.7,25.2,30.47,East,96,1.0,7.0,83,0.00,,,0.00,Wunderground v.1.15,2013-01-10 01:58:00,
2013-01-09 20:00:00,29.7,25.5,30.47,SE,141,1.0,1.0,84,0.00,,,0.00,Wunderground v.1.15,2013-01-10 02:00:00,
2013-01-09 20:02:00,29.7,25.5,30.47,SE,143,1.0,7.0,84,0.00,,,0.00,Wunderground v.1.15,2013-01-10 02:02:00,
2013-01-09 20:04:00,29.8,25.6,30.47,South,169,1.0,7.0,84,0.00,,,0.00,Wunderground v.1.15,2013-01-10 02:04:00,
2013-01-09 20:08:00,29.8,25.3,30.47,South,188,1.0,7.0,83,0.00,,,0.00,Wunderground v.1.15,2013-01-10 02:08:00,
2013-01-09 20:12:00,29.7,25.2,30.47,South,182,1.0,7.0,83,0.00,,,0.00,Wunderground v.1.15,2013-01-10 02:12:00,
2013-01-09 20:18:00,29.1,24.6,30.48,South,183,1.0,7.0,83,0.00,,,0.00,Wunderground v.1.15,2013-01-10 02:18:00,
2013-01-09 20:20:00,29.0,24.8,30.47,South,183,0.0,7.0,84,0.00,,,0.00,Wunderground v.1.15,2013-01-10 02:20:00,
2013-01-09 20:22:00,28.9,24.7,30.47,SW,226,0.0,7.0,84,0.00,,,0.00,Wunderground v.1.15,2013-01-10 02:22:00,
2013-01-09 20:24:00,29.0,25.1,30.48,SSW,204,1.0,7.0,85,0.00,,,0.00,Wunderground v.1.15,2013-01-10 02:24:00,
2013-01-09 20:28:00,29.2,25.3,30.48,WSW,238,1.0,7.0,85,0.00,,,0.00,Wunderground v.1.15,2013-01-10 02:28:00,
2013-01-09 20:32:00,29.2,25.3,30.48,SSW,200,2.0,7.0,85,0.00,,,0.00,Wunderground v.1.15,2013-01-10 02:32:00,
2013-01-09 20:38:00,29.1,25.4,30.48,SSW,194,2.0,7.0,86,0.00,,,0.00,Wunderground v.1.15,2013-01-10 02:38:00,
2013-01-09 20:42:00,29.2,25.5,30.47,SW,231,1.0,7.0,86,0.00,,,0.00,Wunderground v.1.15,2013-01-10 02:42:00,
2013-01-09 20:48:00,29.4,25.4,30.47,South,191,1.0,7.0,85,0.00,,,0.00,Wunderground v.1.15,2013-01-10 02:48:00,
2013-01-09 20:52:00,29.6,25.9,30.48,South,186,2.0,7.0,86,0.00,,,0.00,Wunderground v.1.15,2013-01-10 02:52:00,
2013-01-09 20:54:00,29.6,25.6,30.48,South,186,2.0,7.0,85,0.00,,,0.00,Wunderground v.1.15,2013-01-10 02:54:00,
2013-01-09 21:00:00,29.2,25.3,30.48,South,186,1.0,1.0,85,0.00,,,0.00,Wunderground v.1.15,2013-01-10 03:00:00,
2013-01-09 21:02:00,29.2,25.5,30.48,SSW,212,1.0,7.0,86,0.00,,,0.00,Wunderground v.1.15,2013-01-10 03:02:00,
2013-01-09 21:04:00,29.4,25.7,30.47,SW,222,0.0,7.0,86,0.00,,,0.00,Wunderground v.1.15,2013-01-10 03:04:00,
2013-01-09 21:06:00,29.7,26.0,30.47,SW,233,1.0,7.0,86,0.00,,,0.00,Wunderground v.1.15,2013-01-10 03:06:00,
2013-01-09 21:10:00,29.9,25.9,30.47,SSW,203,1.0,7.0,85,0.00,,,0.00,Wunderground v.1.15,2013-01-10 03:10:00,
2013-01-09 21:14:00,30.0,26.0,30.47,South,183,1.0,7.0,85,0.00,,,0.00,Wunderground v.1.15,2013-01-10 03:14:00,
2013-01-09 21:16:00,30.1,26.1,30.47,South,191,1.0,7.0,85,0.00,,,0.00,Wunderground v.1.15,2013-01-10 03:16:00,
2013-01-09 21:18:00,30.1,25.8,30.48,SSW,200,2.0,7.0,84,0.00,,,0.00,Wunderground v.1.15,2013-01-10 03:18:00,
2013-01-09 21:22:00,30.2,25.9,30.47,SSW,198,2.0,7.0,84,0.00,,,0.00,Wunderground v.1.15,2013-01-10 03:22:00,
2013-01-09 21:24:00,30.2,25.9,30.47,South,188,2.0,7.0,84,0.00,,,0.00,Wunderground v.1.15,2013-01-10 03:24:00,
2013-01-09 21:26:00,30.1,25.8,30.48,South,188,1.0,7.0,84,0.00,,,0.00,Wunderground v.1.15,2013-01-10 03:26:00,
2013-01-09 21:28:00,30.0,25.8,30.48,South,177,1.0,7.0,84,0.00,,,0.00,Wunderground v.1.15,2013-01-10 03:28:00,
2013-01-09 21:34:00,29.7,25.7,30.48,South,188,1.0,7.0,85,0.00,,,0.00,Wunderground v.1.15,2013-01-10 03:34:00,
2013-01-09 21:36:00,29.6,25.6,30.48,SSW,194,1.0,7.0,85,0.00,,,0.00,Wunderground v.1.15,2013-01-10 03:36:00,
2013-01-09 21:40:00,29.6,25.6,30.48,South,191,1.0,7.0,85,0.00,,,0.00,Wunderground v.1.15,2013-01-10 03:40:00,
2013-01-09 21:46:00,29.6,25.6,30.48,SSW,196,2.0,7.0,85,0.00,,,0.00,Wunderground v.1.15,2013-01-10 03:46:00,
2013-01-09 21:48:00,29.5,25.5,30.48,South,187,2.0,7.0,85,0.00,,,0.00,Wunderground v.1.15,2013-01-10 03:48:00,
2013-01-09 21:52:00,29.4,25.4,30.48,SSE,162,2.0,7.0,85,0.00,,,0.00,Wunderground v.1.15,2013-01-10 03:52:00,
2013-01-09 21:54:00,29.2,25.0,30.48,SSE,162,2.0,7.0,84,0.00,,,0.00,Wunderground v.1.15,2013-01-10 03:54:00,
2013-01-09 21:58:00,28.8,24.9,30.48,SSE,166,1.0,7.0,85,0.00,,,0.00,Wunderground v.1.15,2013-01-10 03:58:00,
2013-01-09 22:02:00,28.8,25.4,30.48,South,170,1.0,7.0,87,0.00,,,0.00,Wunderground v.1.15,2013-01-10 04:02:00,
2013-01-09 22:06:00,28.7,25.3,30.48,South,169,1.0,7.0,87,0.00,,,0.00,Wunderground v.1.15,2013-01-10 04:06:00,
2013-01-09 22:08:00,28.8,25.4,30.48,South,169,1.0,7.0,87,0.00,,,0.00,Wunderground v.1.15,2013-01-10 04:08:00,
2013-01-09 22:10:00,28.8,25.4,30.48,South,169,1.0,7.0,87,0.00,,,0.00,Wunderground v.1.15,2013-01-10 04:10:00,
2013-01-09 22:12:00,28.8,25.4,30.49,South,169,1.0,7.0,87,0.00,,,0.00,Wunderground v.1.15,2013-01-10 04:12:00,
2013-01-09 22:16:00,28.8,25.4,30.49,SSE,163,1.0,7.0,87,0.00,,,0.00,Wunderground v.1.15,2013-01-10 04:16:00,
2013-01-09 22:20:00,28.8,25.4,30.49,SSE,165,1.0,1.0,87,0.00,,,0.00,Wunderground v.1.15,2013-01-10 04:20:00,
2013-01-09 22:22:00,28.7,25.0,30.49,SSE,150,1.0,7.0,86,0.00,,,0.00,Wunderground v.1.15,2013-01-10 04:22:00,
2013-01-09 22:24:00,28.7,25.3,30.49,SE,145,1.0,7.0,87,0.00,,,0.00,Wunderground v.1.15,2013-01-10 04:24:00,
2013-01-09 22:26:00,28.8,25.4,30.49,SE,134,1.0,7.0,87,0.00,,,0.00,Wunderground v.1.15,2013-01-10 04:26:00,
2013-01-09 22:28:00,28.8,25.4,30.49,SE,134,1.0,7.0,87,0.00,,,0.00,Wunderground v.1.15,2013-01-10 04:28:00,
2013-01-09 22:30:00,28.8,25.4,30.49,SE,124,1.0,7.0,87,0.00,,,0.00,Wunderground v.1.15,2013-01-10 04:30:00,
2013-01-09 22:34:00,28.8,25.4,30.49,ESE,117,1.0,7.0,87,0.00,,,0.00,Wunderground v.1.15,2013-01-10 04:34:00,
2013-01-09 22:36:00,29.0,25.6,30.49,ESE,116,1.0,7.0,87,0.00,,,0.00,Wunderground v.1.15,2013-01-10 04:36:00,
2013-01-09 22:42:00,29.1,25.7,30.49,ESE,110,1.0,7.0,87,0.00,,,0.00,Wunderground v.1.15,2013-01-10 04:42:00,
2013-01-09 22:44:00,29.2,25.8,30.49,ESE,110,1.0,7.0,87,0.00,,,0.00,Wunderground v.1.15,2013-01-10 04:44:00,
2013-01-09 22:46:00,29.3,25.6,30.49,ESE,116,1.0,7.0,86,0.00,,,0.00,Wunderground v.1.15,2013-01-10 04:46:00,
2013-01-09 22:48:00,29.4,25.7,30.49,ESE,116,1.0,7.0,86,0.00,,,0.00,Wunderground v.1.15,2013-01-10 04:48:00,
2013-01-09 22:52:00,29.7,26.0,30.49,ESE,119,1.0,7.0,86,0.00,,,0.00,Wunderground v.1.15,2013-01-10 04:52:00,
2013-01-09 22:54:00,29.7,25.7,30.49,ESE,118,1.0,7.0,85,0.00,,,0.00,Wunderground v.1.15,2013-01-10 04:54:00,
2013-01-09 22:58:00,29.8,26.1,30.49,ESE,119,1.0,7.0,86,0.00,,,0.00,Wunderground v.1.15,2013-01-10 04:58:00,
2013-01-09 23:00:00,29.9,26.2,30.49,ESE,119,1.0,1.0,86,0.00,,,0.00,Wunderground v.1.15,2013-01-10 05:00:00,
2013-01-09 23:04:00,30.1,26.1,30.50,ESE,119,0.0,7.0,85,0.00,,,0.00,Wunderground v.1.15,2013-01-10 05:04:00,
2013-01-09 23:06:00,30.1,26.1,30.50,ESE,119,0.0,7.0,85,0.00,,,0.00,Wunderground v.1.15,2013-01-10 05:06:00,
2013-01-09 23:10:00,30.1,26.4,30.50,ESE,119,0.0,7.0,86,0.00,,,0.00,Wunderground v.1.15,2013-01-10 05:10:00,
2013-01-09 23:14:00,30.3,26.3,30.50,ESE,119,0.0,7.0,85,0.00,,,0.00,Wunderground v.1.15,2013-01-10 05:14:00,
2013-01-09 23:16:00,30.3,26.3,30.50,ESE,118,0.0,7.0,85,0.00,,,0.00,Wunderground v.1.15,2013-01-10 05:16:00,
2013-01-09 23:20:00,30.4,26.4,30.50,SE,129,0.0,7.0,85,0.00,,,0.00,Wunderground v.1.15,2013-01-10 05:20:00,
2013-01-09 23:22:00,30.2,25.9,30.50,SE,132,1.0,7.0,84,0.00,,,0.00,Wunderground v.1.15,2013-01-10 05:22:00,
2013-01-09 23:28:00,29.9,25.9,30.50,SE,132,1.0,7.0,85,0.00,,,0.00,Wunderground v.1.15,2013-01-10 05:28:00,
2013-01-09 23:30:00,29.9,25.9,30.50,SE,132,1.0,1.0,85,0.00,,,0.00,Wunderground v.1.15,2013-01-10 05:30:00,
2013-01-09 23:34:00,29.9,25.9,30.50,SSE,163,1.0,7.0,85,0.00,,,0.00,Wunderground v.1.15,2013-01-10 05:34:00,
2013-01-09 23:38:00,29.9,25.9,30.50,SE,141,0.0,7.0,85,0.00,,,0.00,Wunderground v.1.15,2013-01-10 05:38:00,
2013-01-09 23:40:00,29.8,25.8,30.50,SE,141,1.0,7.0,85,0.00,,,0.00,Wunderground v.1.15,2013-01-10 05:40:00,
2013-01-09 23:44:00,29.8,25.8,30.50,South,169,1.0,7.0,85,0.00,,,0.00,Wunderground v.1.15,2013-01-10 05:44:00,
2013-01-09 23:48:00,29.8,25.8,30.51,SSE,168,2.0,7.0,85,0.00,,,0.00,Wunderground v.1.15,2013-01-10 05:48:00,
2013-01-09 23:50:00,29.8,25.8,30.51,South,177,2.0,7.0,85,0.00,,,0.00,Wunderground v.1.15,2013-01-10 05:50:00,
2013-01-09 23:54:00,29.7,25.7,30.51,South,175,3.0,7.0,85,0.00,,,0.00,Wunderground v.1.15,2013-01-10 05:54:00,
2013-01-09 23:58:00,29.6,25.6,30.51,South,190,3.0,7.0,85,0.00,,,0.00,Wunderground v.1.15,2013-01-10 05:58:00,